Torna al catalogo

FENGYUN 1C DEB

AttivoSSO
NORAD 31171·DEBRIS·🇨🇳 China

Lanciato May 10, 1999 da Taiyuan Satellite Launch Center

Loading…

Prossimi Passaggi (prossime 24 ore)

TLE

AggiornatoSource: Space-Track

Epoca: Sep 13, 2026, 09:53 UTC

1 31171U 99025BHZ 26256.41238260  .00003884  00000-0  11075-2 0  9994
2 31171  98.0311 233.1043 0141112 204.9036 308.7701 14.40051163997777

Traccia FENGYUN 1C DEB in tempo reale con AllMySat

Download on the App Store